Wind_Speed
31 31 31 31 32 33 33 32 32 31 30 29 28 28 27 25 25 24 23 23 23 22 22 22 23 23 23 23 24 24 24 24 25 26 27 28 29 32 33 35 36 36 37 37 39 40 39 37 35 35 35 35 35 36 35 35 34 34 33 32 31 30 29 28 28 28 28 27 28 29 28 25 26 28 28 29 33 35 37 38 36 34 32 33 35 37 39 40
33 32 32 32 33 33 33 33 33 32 32 31 30 30 29 28 27 26 25 24 24 23 23 23 23 23 23 23 23 24 24 24 24 25 27 28 29 31 33 35 36 37 37 37 39 40 38 36 35 36 36 36 35 35 34 33 32 31 30 30 30 30 30 29 28 28 28 28 29 29 29 26 25 27 28 31 33 35 38 38 36 34 34 36 38 39 39 39
34 34 33 34 34 34 34 34 34 34 34 33 32 31 31 30 29 28 27 26 25 24 24 24 23 23 23 23 23 23 24 24 24 25 26 28 29 31 32 34 35 37 37 37 38 39 37 35 35 36 37 37 36 35 34 32 29 28 28 28 29 29 29 29 28 28 28 29 29 29 30 28 26 27 29 32 35 37 37 36 35 35 36 38 39 39 38 39
36 35 35 35 35 36 36 35 35 35 35 35 34 33 32 31 31 30 29 28 27 26 25 25 24 24 23 23 23 23 24 24 25 25 27 28 30 31 32 34 35 36 37 37 38 38 36 34 34 35 36 36 36 36 35 33 30 26 25 26 27 26 27 27 27 26 26 27 28 29 30 30 28 28 30 33 36 37 35 34 35 36 38 38 38 38 38 40
38 37 37 37 37 37 37 37 37 37 37 36 36 35 34 33 32 32 31 30 29 27 27 26 25 25 24 24 24 24 24 25 25 26 27 29 30 31 33 34 35 36 37 37 38 38 36 32 31 32 34 35 34 35 35 34 31 28 24 24 25 24 24 25 25 25 25 26 26 28 30 31 31 30 31 34 35 34 34 34 36 37 37 37 37 38 40 41
40 39 39 38 39 39 39 38 38 38 38 38 37 37 36 35 34 33 32 31 30 29 28 27 26 26 25 25 24 25 25 26 26 27 28 30 31 32 34 35 35 37 38 37 37 37 36 33 30 30 32 33 32 32 33 33 32 30 27 26 26 25 24 24 24 24 24 25 25 27 29 32 32 31 31 32 33 33 34 36 37 36 36 37 39 41 42 44
41 42 41 41 40 40 40 40 40 40 40 40 39 38 38 37 36 35 34 33 32 31 30 28 27 27 26 26 26 26 26 27 27 28 29 31 32 34 35 36 37 38 39 38 38 37 37 34 31 30 31 32 31 30 30 32 31 30 28 27 27 26 26 25 24 23 23 23 24 25 27 29 29 29 30 32 33 34 35 37 37 36 37 39 41 42 44 45
42 43 43 43 42 42 42 42 42 42 42 41 41 40 39 39 38 37 36 35 34 32 31 30 28 28 27 27 26 27 27 28 28 29 30 31 33 35 36 37 38 38 39 40 39 39 39 37 34 31 31 31 31 29 28 29 30 29 27 26 26 26 26 26 26 25 24 23 22 23 24 26 27 29 31 33 34 36 37 37 37 38 39 41 42 44 45 47
43 44 45 45 44 44 44 44 44 44 44 43 43 42 41 40 40 39 37 36 35 34 32 31 30 29 29 28 28 28 29 29 30 30 31 32 34 36 38 39 38 38 39 40 40 40 40 39 37 34 32 31 31 30 28 27 28 27 26 25 24 24 24 25 26 26 25 25 24 24 25 26 28 30 33 34 35 36 37 38 38 39 40 42 44 45 46 48
44 45 46 46 46 46 46 46 45 45 45 45 44 43 43 42 41 40 39 38 36 35 33 32 31 30 30 30 29 30 30 30 31 32 32 33 35 37 39 40 39 38 39 40 41 41 40 40 39 37 34 32 31 30 29 27 27 26 26 26 26 25 25 25 26 26 27 27 26 27 27 28 29 31 32 33 35 37 38 39 41 42 43 45 46 46 49 51
44 46 47 47 47 48 48 47 47 47 47 46 46 45 44 43 43 42 41 39 38 36 35 33 32 31 31 31 31 31 32 32 32 33 33 34 36 38 40 41 40 39 40 40 41 41 41 41 40 38 36 34 32 31 30 29 28 27 27 28 28 27 27 27 27 27 28 28 28 28 30 30 30 30 31 33 36 38 40 42 44 44 46 47 48 50 52 53
45 46 47 48 48 48 49 48 48 48 48 48 47 46 45 44 44 43 42 41 39 37 36 34 33 33 32 32 32 33 34 34 34 34 35 36 37 39 41 41 41 41 41 41 41 42 42 42 40 38 37 36 34 32 30 30 30 30 29 30 30 30 29 29 29 29 30 30 30 30 31 31 29 30 32 34 37 40 42 44 44 45 48 49 51 54 54 53
46 47 48 49 49 49 49 49 49 49 49 49 48 47 46 45 44 43 42 42 40 38 37 36 35 34 34 33 34 35 36 36 35 35 36 37 38 39 41 42 42 43 42 41 41 42 43 42 39 37 37 37 35 33 32 31 31 31 31 31 33 33 32 32 32 32 32 32 32 31 32 33 31 32 34 36 39 41 43 44 45 47 50 51 52 54 53 53
45 47 49 49 50 50 49 50 50 50 50 49 49 48 47 45 44 43 43 42 41 39 38 36 36 36 35 35 35 35 36 37 37 37 37 38 38 39 41 42 43 44 44 42 41 42 43 41 38 36 36 36 35 34 33 33 33 32 32 32 34 35 36 36 36 36 36 35 35 33 34 37 35 35 37 39 41 43 45 47 48 50 50 50 51 53 53 54
46 47 48 50 50 50 50 50 50 50 50 50 50 49 48 47 45 43 43 42 42 40 39 37 37 37 37 37 36 36 37 38 39 39 39 39 39 39 41 43 44 45 45 43 42 42 43 41 37 35 35 35 35 34 34 34 34 33 33 33 33 35 36 38 38 39 40 40 41 38 37 40 40 40 42 43 44 47 48 49 49 49 48 48 51 53 53 54
47 47 48 50 51 51 51 50 51 51 50 50 50 49 48 47 45 44 43 43 42 40 39 39 38 38 39 39 38 38 38 39 40 40 40 40 40 40 41 44 46 46 46 44 42 43 43 41 37 35 35 35 35 35 35 35 34 34 34 34 34 34 35 36 37 38 40 42 43 42 41 43 43 44 46 46 47 49 48 48 48 47 47 49 52 53 54 56
48 48 48 49 50 52 51 50 51 51 50 50 50 49 48 48 46 44 43 43 42 40 40 40 39 39 41 41 40 40 40 41 41 41 42 42 42 42 43 45 47 47 46 44 44 43 43 41 38 36 35 35 36 36 36 35 35 35 35 35 36 36 35 35 36 37 38 40 42 42 41 44 45 45 46 47 46 46 46 47 46 46 48 51 53 55 56 59
48 48 48 49 49 51 52 51 51 51 51 50 51 50 48 48 47 45 44 43 42 41 41 41 40 41 43 43 42 43 42 42 43 44 44 44 43 44 45 47 48 48 47 45 44 45 43 41 40 38 37 37 37 37 36 36 36 37 37 37 37 37 37 35 35 35 35 37 39 40 39 42 43 43 44 44 44 45 46 46 46 48 51 54 56 58 59 61
47 48 48 48 49 49 51 51 51 51 51 50 51 51 49 48 47 46 45 44 43 41 41 42 41 42 44 45 44 45 44 44 45 46 47 46 45 45 46 48 48 48 47 46 45 45 44 42 41 39 38 38 38 38 37 36 37 39 39 38 37 38 39 38 36 35 35 35 38 38 37 41 42 43 43 44 45 47 47 48 49 51 54 57 59 60 61 64
46 47 47 47 48 49 50 51 50 51 51 51 51 51 50 49 47 46 46 45 44 42 42 43 42 43 44 46 47 47 47 46 46 48 49 48 47 46 47 49 49 48 47 47 47 46 45 43 42 40 39 39 39 39 39 38 40 41 40 39 37 37 39 40 39 38 37 37 39 39 39 43 46 46 47 48 49 50 50 51 53 55 56 58 60 62 64 66
45 46 46 47 47 48 48 50 50 50 50 51 51 51 51 50 48 46 46 46 44 43 44 44 43 44 45 47 48 48 49 48 48 50 51 50 48 48 49 49 49 48 47 47 48 47 45 43 43 41 39 39 39 40 41 42 43 43 41 40 39 38 39 41 42 42 41 41 42 42 42 45 49 52 53 53 53 53 53 54 55 56 58 60 63 65 66 66
44 45 45 46 46 47 47 48 49 50 50 51 51 51 50 50 48 47 46 47 45 44 45 45 44 46 47 48 49 50 51 51 50 51 52 51 50 50 50 50 49 48 48 48 48 48 46 44 43 42 40 40 41 42 43 44 45 45 43 41 41 40 40 42 43 44 44 44 44 44 43 45 51 55 57 57 56 56 56 56 57 58 60 63 65 66 66 68
44 44 45 45 46 46 46 47 48 48 49 50 51 51 50 49 49 47 46 47 47 47 46 45 45 47 49 50 51 52 52 51 51 53 54 53 52 51 50 50 49 48 49 49 49 49 47 45 44 43 42 42 43 44 44 46 47 47 46 43 42 42 41 41 43 44 45 46 46 45 43 45 49 54 58 59 58 58 57 57 58 60 63 65 66 66 67 69
44 45 45 45 45 46 46 47 47 47 48 49 50 50 50 49 48 48 47 45 48 50 49 47 47 49 51 52 52 52 52 52 53 54 55 54 53 52 51 50 49 49 50 50 50 50 49 47 46 45 44 44 45 46 46 46 48 49 48 46 44 44 43 42 42 42 44 46 48 47 43 39 43 51 57 60 59 59 58 59 60 62 64 66 65 66 68 69
45 46 45 45 45 45 46 47 47 47 47 48 49 50 50 49 48 48 47 45 46 51 51 50 51 53 54 54 55 54 53 53 54 54 55 54 53 52 51 51 50 50 50 51 51 51 50 49 48 46 46 46 47 48 48 46 47 49 49 48 46 44 44 44 44 43 43 45 48 51 42 31 35 49 58 60 62 61 62 63 63 64 65 65 65 66 68 69
47 46 45 46 46 46 46 46 48 48 47 48 49 49 49 49 48 48 48 45 45 50 53 52 54 57 57 57 57 55 54 55 54 55 55 55 54 53 52 52 51 51 51 52 52 52 51 50 50 49 48 48 49 50 49 48 48 49 50 49 48 47 45 46 47 46 46 44 48 55 47 33 35 50 60 62 62 63 65 66 65 65 65 65 66 67 68 69
49 48 47 46 46 47 47 47 49 48 48 49 48 49 49 49 48 48 48 45 42 49 54 54 57 58 57 58 57 55 55 55 55 55 56 55 54 54 53 53 52 51 53 53 52 53 52 51 52 51 50 51 51 52 52 51 51 50 51 50 50 49 48 49 50 51 50 46 51 60 56 45 41 52 64 65 63 65 67 67 67 67 66 66 67 67 69 71
52 50 49 48 47 47 47 48 49 49 49 49 49 50 49 49 49 47 48 44 40 47 54 56 58 58 58 58 56 55 56 56 56 56 56 55 55 55 54 54 53 52 54 54 53 54 53 53 54 53 53 53 53 54 55 55 54 53 53 52 53 52 52 54 54 55 54 49 53 62 62 56 49 55 67 67 65 68 69 69 69 67 66 67 68 69 71 74
55 53 52 51 50 49 49 49 49 50 50 50 50 50 50 50 49 48 48 43 40 47 54 57 57 58 58 57 56 56 56 56 57 56 56 55 55 56 56 55 54 54 56 56 55 56 55 54 55 55 55 55 56 57 57 57 56 56 56 56 56 56 57 58 57 59 58 53 58 64 65 63 55 57 68 69 68 70 71 71 69 66 66 67 68 71 74 76
57 56 55 54 53 52 51 51 50 51 51 51 51 51 51 50 49 49 47 43 44 49 53 56 57 57 57 57 56 56 56 56 56 55 55 55 56 57 58 57 56 57 58 58 58 58 57 57 58 58 58 57 58 59 58 59 59 60 60 60 60 61 62 62 61 64 62 58 62 66 67 67 61 60 68 70 71 73 72 70 68 66 67 68 71 75 77 79
60 59 57 56 56 55 55 54 53 53 53 52 52 51 51 50 49 48 45 45 50 51 53 56 57 57 57 56 56 55 56 56 56 56 56 56 57 58 60 60 60 59 59 61 62 60 59 60 60 60 61 60 60 61 60 61 63 64 64 64 64 65 67 66 65 68 66 64 65 67 67 68 64 64 67 70 73 73 71 70 69 68 69 71 75 77 79 81
63 62 60 59 59 59 58 57 56 57 56 55 54 53 52 51 48 47 47 51 54 53 54 57 57 57 57 55 55 55 56 56 56 57 57 57 58 60 63 64 64 63 62 63 65 63 61 61 62 63 63 63 63 63 63 64 66 68 69 70 70 71 72 69 69 71 69 67 68 68 68 66 65 66 68 70 73 73 72 71 70 70 73 75 78 79 82 83
67 65 63 62 62 62 61 60 59 60 59 59 57 55 54 51 48 47 51 56 57 56 57 58 57 57 56 54 55 55 56 57 58 59 59 59 59 61 64 67 68 68 67 67 67 65 62 61 64 65 64 65 65 66 67 68 70 72 73 75 76 78 78 74 74 74 72 69 68 69 70 66 65 66 67 70 73 73 72 72 72 75 77 78 80 82 84 84
69 68 66 66 66 66 65 64 63 63 63 61 60 58 55 51 48 51 55 58 60 59 59 59 58 58 57 55 56 57 59 60 60 61 61 60 61 62 65 69 72 73 73 72 70 66 62 59 62 65 65 67 67 68 70 71 74 75 76 78 80 82 83 81 79 78 76 72 68 69 72 68 66 66 66 70 72 72 75 75 77 79 79 80 82 84 85 86
72 70 69 68 69 69 69 68 67 66 66 64 63 60 55 51 52 56 58 59 62 61 60 61 60 59 59 58 58 60 62 63 62 63 64 63 64 64 66 71 74 75 77 77 74 69 63 59 62 65 65 67 68 70 71 73 76 76 76 80 82 84 86 86 84 83 82 77 68 68 70 68 67 65 65 71 73 75 79 79 80 81 80 82 84 85 86 89
74 73 71 71 72 73 73 71 71 71 69 68 66 60 55 55 57 60 61 62 64 64 63 63 61 61 61 61 61 62 65 66 65 66 67 67 66 65 68 72 75 77 79 79 77 73 66 61 62 65 65 67 69 70 72 76 78 77 79 83 85 86 87 89 88 86 86 82 72 69 69 67 65 61 64 73 76 78 81 81 82 82 82 84 85 86 89 92
76 76 74 74 76 77 75 75 75 74 73 72 68 61 58 60 61 63 65 67 68 68 67 66 64 65 65 65 65 66 68 68 68 69 69 69 67 67 71 75 76 79 81 81 79 76 72 66 63 65 66 67 69 71 75 79 80 81 83 86 88 89 89 91 91 89 88 86 77 72 70 67 65 63 67 75 79 80 83 83 83 82 82 84 85 88 91 93
77 76 75 76 80 81 79 79 79 77 77 74 68 63 63 64 64 68 71 72 72 72 71 70 69 69 69 68 69 70 71 71 71 71 70 70 69 68 72 76 78 80 82 83 81 79 79 73 66 66 69 70 71 75 79 81 82 84 87 88 90 90 90 92 93 91 90 89 84 78 73 68 67 68 72 79 82 84 85 84 83 83 82 84 87 91 93 93
76 75 74 77 83 85 83 83 83 81 79 74 68 66 66 66 68 72 74 75 75 75 73 72 73 73 71 71 72 73 74 73 72 73 72 71 71 72 75 78 80 82 84 85 84 83 83 79 70 67 69 71 73 78 82 83 85 87 88 89 89 90 91 91 92 90 90 91 89 85 80 70 67 72 78 81 83 85 86 86 85 84 84 87 91 92 93 94
77 75 72 76 85 87 85 86 86 83 79 74 71 70 70 70 71 73 75 77 77 76 75 74 74 74 73 73 74 75 76 76 75 76 75 75 75 76 78 81 83 85 86 87 86 85 86 83 75 69 70 72 75 80 82 84 87 88 88 89 89 90 91 90 89 88 89 91 89 91 87 72 69 77 81 82 83 86 88 87 85 85 87 91 93 94 96 97
80 77 72 76 86 89 87 87 84 81 78 74 72 73 73 74 74 75 77 78 78 78 77 76 76 76 75 76 77 78 80 79 78 79 78 78 79 81 82 84 85 87 89 89 88 88 88 85 78 74 73 75 77 80 81 83 86 88 88 87 88 91 91 91 89 86 88 90 89 94 91 75 73 83 83 81 84 86 88 88 87 89 92 94 97 98 100 101
82 78 74 79 86 88 89 86 80 77 73 70 73 77 79 79 78 78 79 81 81 81 80 80 79 79 79 79 80 82 83 83 82 82 82 81 83 84 86 87 87 89 90 90 90 90 89 86 81 77 76 76 77 78 80 82 85 86 85 85 87 90 91 92 90 88 90 90 91 99 93 78 79 87 82 82 85 87 90 91 90 93 96 98 100 102 103 104
84 81 79 82 85 88 89 84 77 75 71 70 75 79 80 80 79 79 81 83 84 84 85 84 82 82 83 83 85 86 86 86 85 84 85 85 85 86 88 89 90 90 90 90 90 90 89 86 83 79 77 77 77 77 80 83 86 85 83 84 87 89 90 91 90 91 92 91 95 102 93 82 85 87 83 84 89 92 95 93 92 95 98 100 102 104 106 107
90 87 84 83 85 87 87 83 79 78 76 75 76 77 78 79 78 79 82 85 87 88 87 86 85 85 86 87 88 88 88 89 88 87 88 88 85 86 89 90 90 90 90 90 89 89 88 86 84 82 80 78 77 77 81 85 86 84 82 84 87 88 90 91 91 94 94 93 99 101 93 89 91 88 85 90 96 98 97 94 94 98 100 102 104 105 107 108
96 94 90 87 87 88 85 83 83 84 81 80 80 78 79 79 78 80 83 84 86 87 87 86 86 87 88 88 88 89 90 91 90 90 88 87 86 87 90 91 90 90 90 90 90 89 88 85 84 85 85 83 79 79 83 87 87 84 82 83 85 88 92 93 94 96 96 98 101 97 95 96 93 90 93 99 102 101 97 97 100 102 103 104 106 107 108 109
101 98 93 91 91 90 87 85 87 87 85 85 85 82 80 78 78 81 83 82 83 86 88 88 88 88 88 88 90 90 91 91 92 90 87 86 88 89 91 91 91 91 91 91 91 90 89 86 84 86 89 87 83 83 87 89 88 86 84 84 87 90 93 95 97 98 100 104 101 95 98 100 92 95 104 105 103 101 100 103 106 106 107 108 108 109 110 111
101 97 93 94 96 95 91 89 89 88 88 90 90 86 81 79 77 78 78 79 82 87 89 88 87 87 88 90 92 92 90 90 91 89 87 89 92 93 93 92 92 93 93 94 93 92 91 87 84 88 91 88 86 88 91 93 92 89 86 87 90 92 93 97 99 99 102 108 102 96 102 101 93 100 110 107 104 105 106 108 109 110 111 111 110 111 112 114
101 97 95 97 99 96 93 91 92 94 95 94 92 87 83 79 77 77 78 81 84 87 88 87 86 87 89 92 94 92 88 88 89 90 92 94 96 96 95 94 94 95 95 96 95 95 96 91 87 91 93 91 89 92 96 97 94 91 88 88 91 94 96 99 100 100 104 108 103 99 103 100 97 106 113 110 109 111 111 113 113 114 113 112 113 115 115 117
102 99 98 99 100 98 96 96 98 99 97 96 94 88 83 80 79 80 81 84 86 87 90 90 87 87 91 94 94 92 87 88 93 94 96 99 100 99 98 96 96 96 97 97 98 99 99 95 92 95 97 94 93 96 99 98 97 94 88 87 93 99 100 101 101 102 107 108 105 105 105 101 101 110 113 113 115 116 117 118 118 116 115 115 117 118 118 119
106 103 103 103 103 100 99 99 101 101 99 99 96 87 82 83 83 84 87 89 89 89 91 91 88 90 96 98 97 92 87 91 98 99 99 102 103 101 100 98 96 97 98 99 99 101 102 99 97 100 101 98 96 99 101 100 101 97 87 87 97 102 101 102 104 106 109 110 109 110 109 104 105 111 114 115 118 120 121 121 119 117 118 119 120 121 121 123
111 109 108 109 106 101 99 100 100 101 100 98 93 86 85 88 86 88 93 93 90 90 91 91 90 95 101 101 97 91 89 97 103 103 103 105 104 101 100 97 97 98 99 100 101 102 103 101 101 103 104 101 99 101 102 103 104 96 87 91 101 102 101 103 106 108 110 111 111 111 110 107 108 112 115 117 120 122 122 122 120 120 122 123 123 124 125 126
117 115 113 112 112 109 105 104 103 102 98 92 90 90 91 91 89 93 96 92 89 91 93 93 95 99 103 100 94 93 97 104 107 106 106 106 103 101 99 98 98 99 99 100 101 102 103 103 104 106 107 105 102 103 104 105 102 94 90 95 100 100 101 104 106 106 108 110 110 109 108 109 112 116 118 119 121 122 122 122 122 123 124 125 125 126 127 128
Wind_Direction
228 228 228 228 228 230 232 234 234 235 235 237 240 243 243 244 247 251 254 258 260 263 268 273 280 286 291 296 300 303 307 310 314 319 322 323 323 325 327 329 331 334 335 336 336 336 336 335 335 334 333 332 329 325 322 319 314 310 308 308 309 307 306 304 299 294 293 296 301 304 309 310 305 304 307 310 312 313 317 319 321 323 324 324 325 326 326 327
229 228 229 229 230 231 232 234 235 235 236 236 239 242 243 243 245 248 252 255 258 261 265 271 276 282 288 293 297 300 304 307 311 316 319 320 321 322 323 325 328 331 332 334 335 335 334 334 334 333 333 332 330 327 325 322 317 313 310 309 309 310 309 307 305 300 295 294 298 303 306 308 305 303 306 310 310 310 315 317 319 322 324 325 326 326 327 327
231 229 229 230 230 232 233 234 236 236 236 237 238 240 243 244 244 246 249 253 256 259 262 267 273 279 284 289 293 295 299 303 307 312 315 316 317 317 319 322 324 327 330 331 332 333 333 334 333 333 333 334 333 331 330 329 325 320 316 313 314 317 315 312 311 308 302 296 296 300 303 305 304 302 304 308 307 309 313 315 317 321 323 325 327 327 327 327
233 231 230 230 231 232 234 235 236 237 237 238 239 240 242 244 244 245 247 250 254 257 260 264 269 274 280 285 288 291 294 298 303 308 311 313 313 314 315 317 321 324 327 328 330 331 332 332 332 332 333 334 334 333 333 334 334 333 328 324 325 328 324 320 319 316 309 300 297 298 300 303 304 303 304 305 306 308 312 313 316 321 323 326 328 327 326 326
236 233 231 230 231 232 233 235 236 237 238 239 239 240 241 243 245 246 247 249 252 254 257 261 266 271 276 281 284 287 290 295 300 305 309 310 311 312 312 314 317 320 323 325 327 329 329 329 329 330 331 333 333 332 332 333 336 339 340 337 337 338 332 328 326 322 316 309 303 300 300 302 304 305 304 304 306 309 311 313 316 320 323 326 327 326 325 325
240 237 233 232 231 231 233 235 236 237 238 239 240 241 242 243 244 246 248 249 251 253 255 259 263 268 272 276 280 284 288 293 298 303 306 308 309 310 311 313 314 317 320 322 324 326 326 325 325 326 328 331 332 331 329 330 332 335 338 340 339 338 335 333 330 326 321 315 309 304 302 302 305 307 306 305 308 311 313 314 317 320 322 324 324 324 323 323
241 239 236 234 232 232 232 234 235 236 238 239 240 241 242 243 244 245 248 249 251 253 255 258 262 266 269 273 278 281 285 291 296 300 304 306 308 309 310 311 312 315 318 319 320 322 323 323 322 323 325 326 329 329 325 324 327 330 333 336 337 337 336 335 334 332 327 321 316 310 306 305 307 309 308 310 313 315 315 315 317 319 320 320 321 321 322 322
243 241 239 236 234 233 233 234 235 236 237 238 240 241 242 243 245 245 247 250 251 253 256 258 262 266 269 272 276 280 284 289 293 298 301 304 306 308 309 310 311 313 315 317 318 321 322 322 320 320 321 321 323 325 323 320 322 325 327 331 334 335 335 335 337 337 333 329 324 319 314 311 311 313 313 315 316 315 315 315 316 317 318 319 320 321 322 322
244 243 241 239 237 235 235 234 235 236 237 238 239 241 242 243 245 246 247 249 252 254 256 259 262 265 269 272 275 279 284 288 292 295 299 302 305 307 308 309 310 311 313 315 317 320 320 320 318 318 318 318 319 321 321 319 317 319 321 323 327 329 329 329 332 333 331 329 326 322 318 316 316 315 315 315 314 314 313 313 313 315 317 319 320 320 321 321
246 244 243 242 240 238 237 236 236 237 237 238 239 240 242 243 245 246 247 249 251 254 256 259 262 265 269 272 276 279 283 287 291 294 297 301 303 305 306 308 309 310 312 313 315 317 318 318 316 315 317 317 316 317 317 316 313 311 312 315 318 321 321 322 325 324 324 323 322 320 316 316 316 314 313 312 312 312 312 311 312 314 317 318 319 319 319 319
248 246 244 243 242 241 240 239 238 238 238 239 240 241 242 243 245 246 248 249 251 254 256 258 261 264 268 272 276 280 283 287 290 294 297 300 303 304 305 306 308 309 310 312 314 316 317 317 314 313 315 316 315 313 313 314 311 308 306 307 310 312 314 316 317 317 317 316 317 317 313 313 315 311 310 310 310 311 311 311 312 313 315 316 317 317 318 318
251 249 246 245 244 244 243 242 241 240 240 240 241 242 242 243 245 246 248 250 252 254 256 259 261 265 268 272 276 280 284 287 290 293 297 300 303 304 304 306 307 308 310 311 314 316 317 316 313 311 313 315 313 311 311 311 310 307 304 303 304 306 308 309 310 310 311 311 312 313 308 309 312 308 307 307 307 309 309 309 310 310 312 315 316 317 318 318
255 253 250 247 246 246 245 244 244 243 243 242 243 243 244 245 245 247 248 251 253 255 257 260 262 265 268 271 276 280 284 287 290 293 296 300 302 304 304 304 306 308 309 311 313 315 316 315 311 309 311 313 313 312 310 308 307 305 303 302 303 304 304 303 304 305 306 306 306 309 304 303 308 306 304 305 305 306 306 307 308 309 312 314 316 318 319 319
257 256 254 251 249 248 247 247 247 246 246 245 244 244 245 246 246 247 249 251 254 256 257 260 263 266 269 272 276 280 284 287 289 292 296 299 302 303 303 303 305 307 309 311 313 314 315 313 310 307 308 311 313 313 311 307 305 304 302 302 302 302 302 302 303 304 305 305 305 307 303 301 306 306 303 304 304 305 305 306 307 309 311 313 316 318 319 318
258 257 256 254 252 250 249 249 249 249 248 248 247 246 247 247 247 247 249 251 254 256 259 261 264 267 270 272 275 279 283 286 289 292 295 298 301 302 301 302 304 307 308 309 311 313 313 312 308 305 306 309 311 312 311 310 308 307 305 303 302 302 303 303 304 305 306 306 306 307 305 303 306 306 306 306 305 306 306 306 308 310 310 312 315 318 318 318
260 258 257 257 255 253 251 251 251 251 251 251 250 249 249 249 249 249 249 251 254 257 260 263 265 269 272 273 276 279 282 286 289 292 295 297 299 300 300 301 303 306 307 308 310 311 311 310 306 303 305 307 308 310 311 312 311 310 308 306 304 303 304 304 305 306 306 306 305 306 306 305 306 306 307 307 307 307 306 306 308 309 309 311 315 316 316 317
262 260 259 258 257 256 254 253 252 253 254 253 253 252 251 252 252 251 251 252 254 258 261 264 267 270 272 275 278 280 283 286 289 291 293 295 298 298 299 299 301 304 305 305 308 309 309 308 304 302 303 305 306 308 311 312 312 312 311 309 308 306 305 305 305 306 305 304 303 305 306 304 304 305 306 306 306 305 305 307 307 307 309 311 314 314 314 315
263 262 261 260 259 258 257 256 255 255 255 255 255 255 254 254 254 254 254 254 256 258 261 264 267 270 273 276 278 281 283 286 288 290 291 293 296 297 298 298 299 301 302 303 305 307 307 306 304 302 302 304 304 306 308 309 310 312 312 311 310 309 307 305 304 303 303 303 301 304 305 302 302 304 304 304 302 302 305 306 306 307 309 311 312 313 313 314
264 264 263 262 261 260 259 259 258 257 257 257 257 257 256 256 256 256 256 257 258 259 262 265 267 270 273 276 278 280 283 285 287 289 290 293 296 297 298 297 297 299 299 301 304 305 306 305 303 302 303 303 304 305 306 307 308 310 310 310 309 309 308 306 305 304 304 304 303 305 306 303 303 306 306 304 303 304 306 306 307 308 308 309 311 311 312 313
264 263 264 264 263 262 261 261 260 259 259 258 258 258 258 257 257 257 258 259 259 260 262 265 267 270 272 276 278 280 282 284 287 289 291 294 296 296 296 295 295 297 298 300 303 304 305 304 303 302 303 303 304 305 306 306 306 308 308 307 307 307 306 306 306 306 306 306 306 307 308 308 309 310 310 307 307 307 306 307 308 307 307 309 310 311 313 314
265 264 263 264 263 263 263 262 261 261 261 260 259 259 258 258 259 258 259 260 261 262 263 265 268 270 272 275 277 280 282 285 287 289 291 293 295 295 294 293 293 295 296 298 302 303 303 303 301 301 302 302 303 304 305 305 305 306 306 305 305 305 305 304 305 305 306 306 308 309 312 313 312 312 310 308 308 307 306 308 307 306 308 309 311 312 314 314
268 266 264 263 262 262 262 263 262 262 262 261 260 260 259 259 259 260 260 261 262 263 264 266 269 271 273 275 277 279 281 285 287 288 289 292 292 292 292 291 292 293 295 298 301 301 301 302 300 299 299 300 302 302 303 304 303 303 304 303 303 303 304 305 305 306 305 306 308 310 313 314 313 311 308 307 307 306 307 308 306 306 308 310 312 313 313 314
270 269 267 265 263 261 262 262 262 262 262 262 261 260 260 259 260 260 261 262 264 265 266 267 268 270 272 274 276 278 281 284 286 286 288 290 290 291 291 290 291 292 294 298 300 300 299 300 299 297 298 299 300 301 301 302 302 302 303 302 302 303 304 304 304 305 305 305 305 306 310 312 311 308 305 305 305 305 307 307 305 307 309 312 313 313 313 313
271 269 268 267 265 263 262 262 262 262 262 262 262 261 260 260 260 261 261 262 264 266 268 269 270 271 272 273 275 277 281 283 284 286 287 289 289 290 290 290 290 291 294 297 299 298 298 299 298 297 297 298 298 298 299 300 301 302 302 302 302 303 304 304 304 304 304 305 304 302 306 312 311 308 305 304 303 304 306 305 305 308 310 312 312 312 312 313
271 270 269 268 266 265 264 263 262 262 261 261 261 261 261 260 260 261 262 262 263 266 268 271 273 273 274 275 277 279 282 283 284 286 287 288 289 290 289 289 289 290 293 296 298 296 296 298 297 296 295 295 296 296 297 299 300 301 301 300 302 302 303 304 304 304 304 306 305 301 304 312 311 308 305 303 303 305 305 304 305 308 310 311 311 311 312 313
270 270 270 268 267 266 265 264 262 262 261 261 260 261 260 260 260 261 262 263 264 266 268 271 272 274 276 277 279 282 283 284 284 285 287 288 289 289 288 288 288 289 292 295 296 294 294 295 295 294 294 294 295 295 296 298 299 300 299 298 300 300 302 305 306 306 305 307 307 302 303 308 310 310 307 304 305 306 304 304 305 308 309 310 311 311 311 312
268 269 269 269 268 267 265 264 263 262 261 260 260 260 260 260 260 261 262 263 265 267 269 270 271 273 275 277 280 282 283 283 284 285 286 288 288 288 287 286 286 288 290 292 293 291 291 293 292 292 293 293 294 295 296 297 297 298 297 295 297 298 301 305 307 307 305 308 309 306 306 308 310 312 308 306 308 306 303 304 305 307 309 310 311 311 311 312
266 267 267 268 268 268 266 265 264 263 262 261 261 260 260 260 261 261 263 264 266 268 269 269 271 273 275 277 279 281 281 282 283 284 285 287 287 286 285 284 285 286 288 290 291 289 288 289 290 291 292 293 293 294 295 296 297 297 296 295 296 297 300 303 305 306 305 307 307 307 309 309 312 313 308 307 308 305 303 303 304 306 309 310 310 310 311 311
264 265 266 266 267 267 267 266 265 264 263 262 262 262 261 261 262 264 265 267 269 268 268 269 271 273 275 277 278 279 280 281 282 284 285 286 286 285 285 284 284 286 287 288 289 288 287 287 288 289 291 291 293 294 295 296 297 297 297 297 296 298 299 302 305 306 306 308 307 307 310 310 313 313 307 307 308 304 302 303 304 306 308 309 309 310 311 310
264 264 264 265 266 266 266 266 266 265 264 263 263 263 263 263 265 265 268 270 269 266 267 269 271 273 274 276 278 279 280 281 282 283 284 285 285 285 284 283 284 285 286 287 286 287 286 286 286 288 289 290 292 294 295 296 297 298 298 297 297 299 300 303 306 306 307 310 308 309 311 311 312 310 306 306 306 303 302 302 303 305 306 307 308 309 310 309
263 263 263 264 265 265 265 265 265 265 265 264 263 263 264 264 265 267 270 270 267 266 267 268 270 272 274 276 277 278 279 280 281 282 283 283 284 284 284 283 283 283 285 285 285 285 286 285 285 286 288 290 292 293 294 295 296 297 297 297 299 300 301 304 306 306 308 310 309 309 310 310 311 308 305 305 302 300 300 300 301 303 305 306 308 309 309 309
261 262 262 263 264 264 264 264 264 264 264 264 264 263 263 264 266 269 270 267 265 265 266 267 269 271 272 273 275 276 277 278 279 280 281 281 282 283 283 283 283 282 283 283 284 285 286 286 286 285 287 290 291 292 293 294 296 297 297 298 300 300 301 304 305 306 309 309 309 309 308 308 309 307 306 304 300 299 300 300 300 303 305 307 308 309 308 308
261 261 261 262 263 263 263 263 263 263 263 262 262 262 262 263 265 268 268 267 265 264 264 266 267 268 270 271 273 274 275 276 277 278 279 280 281 282 283 283 283 283 282 282 283 284 285 287 287 287 289 290 292 292 293 294 296 296 297 299 300 300 301 304 305 306 307 307 308 308 307 309 309 308 308 304 301 302 303 302 302 304 306 307 308 308 308 308
261 261 261 262 262 262 263 263 262 263 262 262 261 261 261 263 264 266 267 267 267 265 264 264 264 265 268 270 271 272 273 274 275 276 277 279 279 280 282 283 283 284 284 284 284 284 285 286 287 289 290 291 292 292 293 295 295 296 298 299 299 299 301 303 304 306 306 306 307 307 307 309 309 310 309 304 304 306 304 304 305 306 307 308 308 308 308 308
262 262 262 262 262 263 262 262 262 262 262 262 261 260 262 264 265 265 266 267 268 267 265 264 264 265 267 269 271 272 273 273 274 275 276 277 279 281 283 283 284 285 285 286 286 287 287 287 287 288 289 290 290 291 293 294 294 296 298 297 297 298 300 302 305 306 305 304 305 305 305 308 309 310 308 304 306 305 304 306 307 307 308 309 309 309 309 309
261 262 262 263 263 263 263 263 263 262 262 262 261 261 262 263 264 265 266 267 268 268 267 266 266 266 267 268 270 271 272 273 274 274 276 277 280 283 285 284 285 286 286 287 288 289 289 288 287 287 288 289 290 292 294 293 294 297 297 296 297 298 300 302 303 304 303 303 303 304 305 307 308 310 308 305 304 303 304 307 307 308 309 309 310 309 309 310
260 260 261 262 263 264 264 263 263 263 263 262 262 263 263 263 264 266 266 266 266 268 268 268 268 267 267 267 269 271 272 273 275 276 277 280 282 285 285 285 286 286 286 287 289 290 289 287 286 287 288 289 291 293 293 293 295 297 297 296 297 299 300 302 302 303 302 301 302 303 305 307 308 310 308 304 302 303 306 307 307 308 309 310 310 309 309 311
262 261 261 262 263 263 263 263 263 264 264 264 265 266 266 265 266 267 267 266 266 267 268 269 268 268 268 269 270 271 272 274 276 277 279 281 283 284 284 284 285 285 285 287 288 289 288 287 287 287 289 291 293 293 293 294 296 296 296 297 298 300 301 301 301 302 302 302 302 304 305 306 309 310 307 303 303 306 307 306 307 308 309 310 310 310 311 312
265 264 264 263 262 262 262 262 263 263 264 265 266 267 266 267 267 268 269 269 269 269 270 271 271 271 271 272 272 273 274 275 276 278 280 281 282 282 282 283 283 283 284 285 286 287 287 286 286 288 290 291 293 293 294 295 296 296 297 297 299 300 300 300 301 302 303 303 304 305 304 307 312 309 305 304 307 308 307 306 307 309 311 310 310 311 312 313
266 265 266 265 264 263 262 262 262 263 264 265 266 266 266 266 267 269 270 271 271 272 272 272 273 274 274 274 274 275 275 276 277 279 280 281 282 281 281 282 282 283 284 284 285 286 286 287 288 290 290 291 292 292 294 295 296 296 297 298 300 300 299 300 300 303 304 304 307 306 304 311 315 308 305 308 309 308 306 306 309 311 311 311 311 312 313 313
265 265 266 266 265 265 264 263 264 265 266 267 267 267 266 265 266 267 269 271 272 272 273 273 273 274 274 274 275 275 275 277 278 279 280 281 281 281 281 281 282 283 284 285 285 286 286 288 290 291 291 291 292 293 294 295 295 296 298 299 300 299 299 300 301 303 304 305 308 304 304 315 316 307 308 312 310 307 306 308 311 312 311 311 311 312 313 313
263 263 264 264 265 266 267 267 268 269 270 271 270 267 265 264 264 265 267 269 271 272 272 272 272 273 273 274 275 275 276 276 277 278 279 279 279 280 281 281 282 282 283 285 286 287 287 289 290 291 292 292 293 294 294 295 294 295 297 299 299 299 299 300 301 304 304 306 307 302 305 316 313 307 312 313 308 306 307 310 312 311 311 312 312 313 314 315
264 262 261 261 263 266 267 270 272 272 272 272 269 267 267 266 266 265 266 267 269 270 270 270 271 272 272 273 273 274 275 276 277 277 278 277 278 280 281 281 282 283 284 285 286 287 289 290 291 292 293 293 294 294 294 294 294 295 297 298 298 299 300 300 302 303 304 306 304 301 308 315 309 309 313 310 306 306 308 311 311 310 311 312 313 314 315 315
266 263 261 261 261 263 266 269 270 270 270 270 269 270 270 270 269 268 266 266 267 268 269 270 271 271 272 272 273 274 275 276 276 276 276 278 279 280 281 281 282 283 285 286 287 288 289 290 291 292 292 292 293 294 293 292 293 294 296 296 297 299 299 301 303 303 304 303 300 303 311 311 308 312 313 308 305 307 310 311 310 310 311 312 313 314 314 314
267 266 265 264 263 263 264 266 266 266 266 267 267 268 268 270 270 269 268 268 269 270 271 272 272 272 272 273 274 275 275 275 275 275 277 279 280 280 280 280 282 283 285 286 287 287 288 289 291 293 292 291 293 293 291 290 291 293 295 296 297 298 299 302 303 302 302 301 301 308 312 308 310 315 312 307 307 309 312 311 310 311 312 312 314 314 314 314
267 267 267 267 267 266 265 264 263 264 264 265 264 264 265 267 268 268 269 271 273 273 272 272 272 272 273 274 274 273 273 274 275 277 279 280 280 279 279 280 282 284 285 285 286 286 287 289 291 292 291 292 294 293 291 291 292 293 295 297 298 299 301 302 301 301 302 301 304 311 309 307 314 316 309 307 309 312 313 312 311 312 312 313 314 313 313 314
266 267 269 269 268 267 266 266 266 266 265 263 263 262 263 264 266 267 269 271 271 270 270 271 272 273 273 272 272 272 273 275 277 280 281 280 279 279 279 281 282 283 284 284 285 286 286 288 290 290 290 291 292 292 291 291 292 295 297 299 300 301 302 300 299 301 303 302 306 310 308 309 316 314 308 309 312 313 313 312 312 312 313 314 313 312 313 313
265 267 268 267 267 267 268 268 267 265 263 263 263 264 264 266 267 268 268 268 269 270 271 271 271 272 272 271 271 273 275 277 279 280 280 279 278 279 279 280 281 282 283 284 285 285 286 287 289 289 289 290 291 291 290 291 293 295 298 300 302 301 299 297 299 303 303 303 307 309 307 311 315 310 307 311 313 313 312 311 312 312 313 313 312 312 313 313
264 265 266 266 266 266 266 265 264 263 264 266 266 267 268 269 269 269 269 268 268 269 270 270 270 271 272 272 272 273 275 277 278 277 277 277 277 278 278 279 280 282 283 284 285 285 286 287 288 288 288 290 291 290 290 292 294 295 299 303 301 297 296 298 301 302 302 304 307 307 307 311 312 308 308 311 312 311 310 310 311 312 312 312 312 313 313 314
265 264 264 264 264 264 265 265 265 266 267 267 268 270 272 270 269 269 268 267 266 267 268 269 271 271 271 271 271 273 275 276 276 275 275 275 276 277 278 279 281 282 283 284 284 285 286 287 288 288 288 290 291 291 291 293 293 295 301 302 297 295 298 300 300 301 302 304 305 305 308 310 308 306 308 310 310 309 309 310 311 311 311 311 312 313 313 314
264 263 263 263 264 264 264 264 265 265 265 266 269 271 270 269 268 268 266 266 268 269 269 270 270 270 270 270 272 274 275 274 273 274 274 274 275 277 279 280 281 282 282 283 284 284 286 287 287 287 288 290 291 291 291 291 292 296 301 298 294 296 299 299 299 301 303 303 304 306 307 307 306 306 307 308 307 308 309 310 310 310 310 311 312 312 313 314
263 264 263 263 263 263 263 263 263 263 264 267 270 270 268 268 269 267 267 268 270 270 270 269 268 268 269 271 274 275 273 272 272 272 273 274 276 278 279 280 280 281 282 283 284 284 285 287 287 288 288 290 290 290 290 290 293 297 298 296 295 297 297 298 299 301 302 303 304 305 305 305 305 305 306 306 306 307 308 309 309 310 310 311 311 312 313 315
Height
10860 10860 10860 10861 10861 10861 10862 10863 10863 10864 10864 10865 10865 10865 10864 10864 10864 10864 10863 10863 10862 10862 10861 10861 10860 10860 10859 10858 10857 10856 10855 10854 10853 10851 10849 10848 10846 10844 10842 10840 10839 10837 10836 10834 10832 10830 10828 10827 10825 10823 10821 10820 10817 10813 10811 10808 10805 10803 10802 10801 10801 10800 10799 10799 10799 10799 10798 10798 10797 10795 10795 10795 10792 10787 10785 10783 10780 10778 10776 10775 10774 10774 10772 10771 10769 10766 10764 10762
10857 10857 10858 10858 10858 10859 10859 10860 10860 10861 10861 10862 10862 10862 10862 10862 10862 10861 10861 10861 10860 10860 10860 10859 10858 10858 10857 10856 10856 10855 10853 10852 10851 10850 10848 10846 10844 10842 10840 10838 10836 10835 10833 10832 10830 10828 10826 10824 10822 10821 10819 10818 10815 10811 10809 10806 10803 10801 10800 10799 10798 10797 10796 10795 10795 10795 10796 10795 10794 10792 10791 10791 10790 10786 10783 10781 10779 10776 10775 10773 10772 10771 10769 10768 10766 10764 10761 10759
10854 10855 10855 10855 10855 10856 10856 10857 10857 10858 10858 10858 10859 10859 10859 10859 10859 10859 10859 10858 10858 10858 10857 10857 10856 10856 10855 10854 10854 10853 10852 10851 10850 10849 10847 10845 10843 10841 10839 10837 10835 10834 10832 10830 10828 10826 10824 10821 10819 10817 10815 10814 10812 10808 10806 10804 10802 10800 10798 10796 10796 10795 10793 10792 10792 10792 10792 10793 10792 10790 10788 10787 10787 10785 10782 10780 10777 10775 10773 10771 10770 10768 10767 10765 10763 10760 10758 10756
10852 10852 10852 10852 10852 10853 10853 10854 10854 10855 10855 10855 10856 10856 10856 10856 10856 10856 10856 10855 10855 10855 10855 10854 10854 10853 10853 10852 10852 10851 10850 10849 10848 10847 10845 10844 10841 10839 10837 10835 10833 10832 10830 10829 10827 10825 10823 10820 10818 10815 10813 10811 10809 10806 10803 10801 10799 10798 10796 10794 10794 10793 10791 10789 10789 10789 10789 10789 10789 10788 10785 10784 10784 10784 10781 10778 10775 10773 10772 10770 10768 10766 10764 10763 10761 10758 10756 10754
10849 10849 10848 10848 10849 10849 10850 10850 10851 10852 10852 10852 10852 10853 10853 10853 10853 10853 10853 10853 10852 10852 10852 10852 10851 10851 10850 10850 10849 10849 10848 10847 10846 10845 10843 10842 10839 10837 10835 10833 10832 10830 10829 10827 10825 10823 10822 10821 10818 10815 10812 10810 10807 10804 10801 10798 10797 10796 10795 10793 10792 10791 10790 10788 10787 10786 10786 10785 10786 10786 10783 10781 10781 10781 10779 10776 10773 10771 10769 10767 10765 10764 10763 10761 10759 10757 10755 10753
10846 10846 10845 10845 10845 10846 10846 10847 10848 10848 10848 10849 10849 10850 10850 10850 10850 10850 10850 10850 10849 10849 10849 10849 10848 10848 10848 10847 10847 10846 10845 10844 10843 10842 10841 10839 10837 10835 10833 10831 10830 10828 10827 10825 10823 10822 10820 10819 10818 10815 10812 10809 10806 10803 10800 10797 10795 10793 10792 10791 10790 10789 10788 10787 10786 10785 10784 10783 10783 10783 10781 10778 10777 10777 10776 10773 10771 10769 10766 10764 10763 10762 10760 10759 10757 10755 10752 10750
10843 10842 10842 10842 10842 10842 10843 10843 10844 10845 10845 10845 10846 10846 10847 10847 10847 10847 10847 10847 10847 10846 10846 10846 10845 10845 10845 10844 10844 10843 10842 10842 10841 10840 10838 10837 10835 10833 10831 10829 10827 10826 10824 10822 10821 10820 10818 10817 10816 10814 10811 10808 10805 10802 10799 10795 10793 10791 10790 10789 10788 10786 10785 10784 10784 10783 10782 10781 10780 10780 10778 10776 10775 10774 10771 10769 10767 10765 10763 10761 10759 10758 10757 10755 10753 10751 10749 10746
10839 10839 10839 10839 10839 10839 10839 10840 10840 10841 10841 10842 10842 10843 10843 10844 10844 10844 10844 10844 10843 10843 10843 10843 10842 10842 10842 10841 10841 10840 10839 10839 10838 10837 10836 10834 10832 10830 10829 10827 10825 10823 10821 10820 10818 10816 10814 10813 10812 10811 10809 10807 10804 10802 10798 10795 10792 10790 10788 10787 10786 10784 10782 10781 10781 10781 10780 10779 10778 10777 10775 10773 10772 10770 10767 10765 10763 10760 10758 10756 10755 10754 10752 10750 10749 10746 10744 10742
10835 10835 10835 10836 10835 10835 10836 10836 10837 10837 10837 10838 10839 10839 10840 10840 10840 10841 10841 10841 10840 10840 10840 10839 10839 10839 10838 10838 10838 10837 10836 10836 10835 10834 10833 10831 10830 10828 10826 10824 10823 10821 10819 10817 10815 10812 10811 10809 10808 10808 10807 10804 10802 10800 10797 10794 10791 10789 10787 10785 10784 10783 10781 10780 10779 10778 10777 10776 10775 10774 10772 10770 10768 10766 10763 10761 10758 10756 10754 10752 10750 10749 10747 10745 10744 10742 10739 10737
10831 10831 10832 10832 10832 10832 10832 10833 10833 10833 10834 10834 10835 10836 10836 10836 10837 10837 10837 10837 10837 10837 10837 10836 10836 10836 10835 10835 10835 10834 10833 10833 10832 10831 10830 10829 10827 10825 10823 10821 10820 10818 10816 10814 10812 10810 10808 10806 10805 10804 10803 10801 10800 10798 10795 10793 10790 10788 10785 10783 10782 10781 10780 10778 10777 10776 10775 10773 10773 10771 10769 10767 10765 10763 10760 10758 10755 10752 10749 10746 10745 10743 10742 10740 10738 10736 10734 10732
10827 10827 10828 10828 10829 10829 10829 10829 10829 10830 10830 10830 10831 10832 10833 10833 10833 10834 10834 10834 10834 10834 10834 10833 10833 10833 10832 10831 10831 10831 10830 10829 10828 10828 10827 10825 10824 10822 10820 10818 10817 10815 10814 10812 10810 10807 10805 10803 10801 10800 10799 10797 10796 10795 10793 10791 10788 10786 10783 10781 10779 10778 10777 10776 10775 10774 10772 10771 10770 10769 10766 10764 10763 10760 10757 10755 10751 10748 10745 10742 10740 10738 10736 10734 10732 10730 10728 10725
10824 10824 10824 10824 10825 10825 10826 10826 10826 10826 10827 10827 10827 10828 10829 10830 10830 10830 10831 10830 10831 10831 10831 10830 10830 10829 10829 10828 10828 10827 10826 10826 10825 10824 10823 10822 10820 10818 10816 10814 10813 10812 10811 10809 10807 10805 10802 10800 10798 10796 10795 10794 10792 10791 10790 10788 10786 10784 10781 10778 10776 10775 10774 10773 10772 10771 10770 10768 10767 10766 10763 10761 10761 10757 10754 10752 10748 10745 10742 10739 10736 10734 10731 10729 10727 10724 10722 10719
10820 10821 10821 10821 10821 10822 10822 10822 10822 10823 10823 10823 10824 10824 10825 10826 10827 10827 10827 10827 10827 10828 10828 10827 10827 10826 10826 10825 10825 10824 10823 10822 10822 10821 10820 10819 10817 10814 10812 10811 10810 10808 10807 10806 10804 10802 10800 10797 10795 10793 10791 10790 10789 10787 10786 10785 10783 10781 10779 10776 10773 10771 10770 10769 10768 10767 10766 10765 10764 10763 10759 10756 10757 10755 10751 10748 10744 10741 10738 10736 10733 10731 10728 10725 10722 10719 10716 10713
10817 10817 10817 10818 10818 10818 10818 10819 10819 10819 10820 10820 10820 10821 10821 10822 10823 10824 10824 10824 10824 10824 10825 10824 10824 10823 10822 10821 10821 10821 10819 10818 10818 10817 10816 10815 10813 10811 10809 10807 10806 10804 10803 10802 10800 10799 10797 10794 10792 10790 10788 10786 10785 10783 10782 10781 10779 10777 10775 10774 10771 10768 10767 10765 10764 10763 10761 10760 10758 10759 10756 10751 10751 10750 10747 10744 10740 10738 10735 10732 10730 10727 10724 10721 10718 10715 10713 10710
10813 10813 10813 10814 10814 10815 10815 10815 10815 10816 10816 10816 10817 10817 10817 10818 10820 10821 10821 10821 10821 10821 10821 10821 10821 10820 10818 10818 10817 10817 10816 10814 10814 10813 10812 10811 10810 10808 10805 10803 10802 10800 10799 10798 10796 10795 10793 10791 10789 10787 10786 10783 10781 10780 10778 10776 10775 10773 10771 10770 10769 10766 10764 10761 10760 10758 10756 10754 10752 10753 10751 10746 10745 10743 10740 10738 10735 10732 10730 10727 10725 10723 10720 10717 10715 10712 10709 10706
10809 10809 10809 10810 10811 10811 10811 10812 10812 10812 10812 10813 10813 10814 10814 10815 10816 10817 10818 10818 10818 10818 10818 10817 10817 10816 10814 10813 10813 10813 10812 10811 10810 10809 10808 10807 10806 10805 10802 10799 10798 10796 10795 10793 10792 10791 10790 10788 10786 10784 10783 10781 10779 10776 10774 10772 10770 10769 10767 10765 10764 10763 10762 10759 10757 10755 10752 10749 10746 10746 10745 10741 10739 10738 10734 10732 10729 10726 10723 10721 10719 10717 10715 10712 10710 10707 10704 10701
10805 10805 10805 10806 10807 10807 10808 10808 10808 10808 10809 10809 10809 10811 10811 10811 10812 10814 10814 10815 10815 10815 10815 10813 10813 10813 10810 10809 10809 10808 10808 10807 10806 10806 10804 10803 10802 10801 10799 10796 10794 10792 10791 10789 10788 10786 10786 10784 10782 10781 10779 10778 10776 10773 10771 10769 10767 10765 10763 10761 10759 10758 10758 10756 10754 10753 10750 10747 10743 10743 10742 10738 10735 10734 10731 10728 10725 10721 10718 10717 10714 10712 10709 10706 10703 10700 10697 10694
10800 10801 10801 10802 10803 10803 10804 10805 10804 10804 10804 10805 10806 10806 10808 10808 10808 10810 10811 10811 10812 10812 10811 10810 10810 10809 10806 10806 10805 10803 10803 10802 10802 10802 10800 10799 10798 10796 10795 10793 10791 10789 10787 10786 10784 10782 10781 10780 10778 10777 10776 10774 10772 10770 10768 10766 10764 10762 10760 10757 10755 10753 10752 10752 10752 10750 10749 10746 10742 10741 10741 10735 10733 10732 10729 10726 10722 10718 10716 10713 10710 10706 10702 10699 10696 10693 10691 10688
10796 10796 10797 10798 10799 10799 10800 10800 10801 10800 10800 10801 10802 10802 10804 10804 10805 10806 10806 10807 10808 10808 10808 10806 10806 10806 10803 10801 10800 10799 10799 10798 10798 10797 10795 10795 10794 10792 10790 10788 10787 10785 10783 10781 10781 10778 10776 10775 10773 10772 10771 10770 10768 10766 10764 10763 10761 10759 10757 10755 10753 10750 10747 10746 10747 10746 10745 10744 10739 10739 10738 10732 10729 10728 10725 10721 10717 10713 10711 10708 10705 10701 10697 10693 10691 10688 10685 10682
10792 10792 10793 10794 10794 10795 10796 10796 10797 10796 10796 10797 10797 10798 10799 10800 10801 10802 10802 10803 10804 10804 10804 10802 10802 10801 10799 10797 10796 10795 10794 10794 10794 10792 10791 10790 10789 10788 10786 10784 10782 10781 10779 10777 10775 10773 10772 10771 10768 10767 10766 10765 10763 10761 10760 10758 10756 10755 10753 10751 10749 10748 10745 10742 10741 10740 10740 10739 10735 10734 10733 10727 10722 10721 10717 10713 10710 10707 10704 10702 10699 10696 10692 10689 10686 10683 10680 10676
10787 10787 10788 10789 10790 10791 10791 10792 10792 10792 10792 10792 10793 10794 10794 10795 10797 10798 10798 10798 10799 10800 10799 10798 10798 10797 10795 10793 10791 10790 10789 10789 10789 10787 10786 10785 10785 10783 10781 10780 10778 10776 10775 10773 10771 10768 10767 10767 10764 10762 10762 10760 10759 10757 10755 10753 10751 10750 10749 10746 10745 10744 10742 10738 10737 10736 10734 10734 10731 10729 10728 10723 10717 10713 10709 10706 10705 10701 10699 10697 10694 10690 10687 10684 10681 10678 10674 10670
10782 10783 10783 10784 10785 10786 10786 10787 10787 10788 10788 10787 10788 10789 10790 10791 10792 10793 10794 10794 10794 10795 10794 10793 10794 10792 10790 10789 10787 10786 10785 10784 10784 10783 10781 10781 10780 10779 10777 10775 10773 10771 10769 10768 10766 10763 10762 10762 10759 10757 10757 10755 10754 10752 10750 10747 10745 10744 10744 10742 10740 10739 10739 10735 10732 10731 10729 10728 10727 10725 10725 10721 10714 10707 10701 10700 10699 10695 10694 10692 10687 10684 10681 10678 10675 10671 10667 10662
10778 10778 10779 10779 10780 10780 10781 10782 10782 10783 10783 10783 10783 10783 10785 10786 10787 10788 10790 10790 10789 10788 10788 10789 10789 10787 10785 10784 10783 10782 10781 10781 10780 10778 10777 10776 10774 10774 10772 10770 10768 10767 10764 10762 10761 10758 10756 10757 10755 10752 10751 10750 10748 10747 10745 10743 10739 10738 10738 10737 10735 10733 10734 10732 10730 10727 10724 10722 10721 10721 10723 10721 10713 10703 10694 10692 10692 10689 10688 10685 10681 10678 10675 10672 10668 10664 10659 10654
10773 10773 10774 10775 10775 10776 10776 10776 10777 10778 10778 10778 10778 10778 10780 10781 10783 10783 10785 10787 10785 10782 10782 10783 10783 10782 10780 10779 10778 10778 10778 10777 10775 10773 10772 10770 10769 10768 10767 10765 10763 10761 10759 10757 10755 10752 10750 10751 10750 10747 10746 10744 10743 10741 10740 10738 10734 10731 10730 10730 10729 10727 10727 10726 10726 10724 10721 10717 10714 10713 10720 10721 10711 10699 10688 10683 10681 10681 10680 10676 10672 10670 10667 10664 10661 10656 10651 10647
10769 10769 10770 10770 10770 10771 10771 10772 10772 10772 10774 10774 10773 10774 10775 10776 10778 10778 10779 10782 10782 10778 10777 10777 10776 10773 10773 10773 10772 10773 10773 10770 10769 10768 10766 10764 10763 10762 10761 10759 10758 10756 10754 10752 10750 10746 10744 10745 10744 10742 10741 10739 10737 10735 10734 10734 10731 10726 10723 10723 10723 10722 10721 10720 10719 10719 10717 10715 10707 10702 10712 10720 10712 10697 10685 10678 10675 10673 10670 10667 10664 10663 10660 10657 10653 10648 10644 10640
10764 10764 10765 10765 10766 10766 10767 10767 10766 10767 10768 10768 10768 10769 10770 10771 10772 10773 10774 10776 10778 10775 10772 10773 10770 10766 10767 10765 10765 10766 10766 10764 10763 10762 10759 10758 10757 10756 10754 10753 10752 10751 10749 10748 10745 10741 10739 10739 10737 10737 10735 10733 10732 10729 10728 10728 10726 10723 10718 10716 10716 10715 10715 10714 10713 10712 10711 10711 10703 10692 10701 10714 10711 10696 10681 10674 10672 10669 10662 10659 10658 10656 10654 10651 10646 10641 10637 10633
10759 10760 10760 10760 10760 10761 10762 10761 10760 10762 10762 10762 10764 10764 10764 10766 10767 10768 10768 10771 10775 10772 10768 10767 10763 10761 10761 10759 10759 10760 10759 10758 10757 10755 10753 10752 10751 10749 10748 10747 10746 10746 10743 10742 10741 10735 10734 10734 10731 10731 10729 10727 10725 10723 10721 10720 10719 10717 10713 10711 10710 10708 10708 10707 10707 10706 10705 10707 10699 10686 10688 10701 10706 10694 10675 10668 10668 10663 10656 10652 10652 10650 10647 10644 10639 10634 10630 10626
10754 10754 10755 10755 10755 10756 10756 10756 10755 10756 10756 10757 10758 10758 10759 10760 10761 10763 10763 10766 10772 10769 10762 10759 10757 10756 10755 10755 10755 10754 10753 10752 10750 10749 10747 10746 10744 10742 10741 10740 10740 10740 10738 10737 10736 10731 10729 10728 10725 10724 10723 10720 10719 10717 10714 10713 10712 10710 10707 10705 10703 10702 10701 10700 10701 10699 10698 10702 10696 10683 10680 10686 10696 10688 10668 10663 10663 10655 10649 10647 10645 10644 10641 10638 10632 10627 10623 10618
10748 10749 10749 10749 10750 10750 10750 10750 10750 10749 10750 10751 10752 10753 10754 10755 10757 10758 10758 10763 10768 10764 10756 10753 10752 10751 10749 10749 10749 10748 10747 10745 10744 10743 10742 10740 10738 10735 10734 10733 10733 10733 10731 10730 10729 10725 10723 10723 10720 10718 10717 10714 10713 10711 10708 10705 10704 10702 10699 10698 10696 10695 10694 10693 10694 10692 10692 10696 10689 10680 10676 10676 10686 10682 10661 10656 10654 10646 10643 10641 10639 10638 10635 10631 10626 10621 10617 10611
10742 10743 10743 10744 10744 10744 10744 10744 10744 10743 10744 10745 10746 10747 10748 10750 10753 10753 10755 10761 10760 10756 10752 10748 10746 10745 10744 10743 10743 10743 10741 10739 10738 10737 10736 10734 10732 10728 10726 10726 10726 10726 10724 10723 10723 10720 10718 10716 10714 10711 10710 10709 10707 10704 10701 10698 10696 10694 10691 10690 10689 10687 10685 10685 10686 10682 10685 10690 10682 10675 10672 10668 10675 10674 10659 10650 10644 10637 10635 10633 10632 10631 10628 10624 10620 10616 10610 10604
10735 10736 10737 10738 10737 10737 10737 10738 10738 10737 10738 10739 10740 10741 10743 10745 10747 10749 10754 10754 10749 10748 10747 10742 10740 10739 10738 10738 10737 10737 10735 10732 10732 10730 10729 10728 10726 10722 10718 10717 10718 10718 10718 10715 10713 10715 10713 10709 10708 10705 10703 10702 10700 10697 10695 10692 10688 10685 10683 10681 10681 10679 10676 10678 10679 10675 10677 10680 10676 10671 10668 10664 10666 10664 10655 10646 10636 10630 10630 10628 10625 10624 10621 10617 10613 10609 10603 10596
10729 10730 10731 10731 10730 10730 10730 10731 10731 10731 10731 10732 10733 10736 10737 10740 10744 10747 10748 10742 10739 10742 10740 10735 10736 10734 10732 10733 10732 10730 10728 10726 10725 10724 10723 10721 10720 10716 10710 10708 10707 10709 10711 10709 10705 10707 10708 10704 10701 10698 10697 10695 10693 10691 10688 10685 10681 10677 10674 10672 10672 10669 10667 10670 10670 10668 10671 10671 10668 10665 10661 10662 10661 10654 10648 10639 10627 10624 10625 10621 10619 10616 10613 10610 10605 10600 10594 10587
10722 10723 10725 10725 10724 10722 10722 10724 10724 10723 10724 10725 10727 10730 10732 10736 10742 10743 10738 10731 10730 10733 10732 10728 10729 10728 10727 10728 10726 10723 10722 10719 10718 10716 10716 10716 10714 10710 10704 10700 10697 10696 10700 10701 10700 10701 10703 10702 10695 10691 10691 10688 10686 10683 10680 10677 10672 10668 10666 10663 10660 10654 10653 10659 10660 10659 10663 10664 10662 10656 10651 10655 10654 10648 10642 10628 10618 10617 10615 10612 10610 10608 10604 10600 10596 10590 10584 10578
10714 10716 10718 10719 10716 10715 10715 10716 10716 10716 10716 10718 10720 10723 10728 10734 10738 10734 10728 10723 10720 10723 10724 10722 10722 10721 10722 10722 10720 10717 10714 10713 10713 10710 10709 10710 10708 10706 10700 10693 10688 10686 10686 10688 10692 10695 10699 10700 10692 10686 10685 10681 10679 10676 10672 10670 10664 10660 10659 10655 10651 10644 10639 10644 10648 10649 10650 10654 10658 10650 10643 10645 10644 10641 10633 10618 10611 10609 10604 10603 10602 10598 10595 10591 10587 10581 10574 10568
10707 10708 10711 10711 10708 10707 10707 10707 10709 10708 10708 10710 10712 10718 10726 10731 10729 10723 10720 10716 10711 10712 10715 10714 10716 10716 10717 10716 10713 10711 10707 10705 10707 10704 10702 10703 10702 10702 10697 10687 10680 10677 10674 10674 10679 10686 10692 10695 10689 10682 10680 10676 10673 10670 10667 10662 10657 10656 10655 10647 10643 10639 10633 10631 10635 10637 10634 10640 10651 10647 10640 10639 10636 10633 10624 10608 10604 10600 10594 10596 10593 10588 10585 10581 10576 10570 10563 10557
10699 10701 10703 10703 10700 10698 10698 10700 10700 10699 10700 10702 10705 10715 10724 10723 10718 10714 10712 10708 10702 10702 10705 10707 10710 10710 10709 10709 10706 10704 10698 10697 10699 10697 10696 10696 10696 10697 10691 10681 10676 10670 10665 10663 10666 10674 10682 10687 10684 10677 10675 10672 10667 10665 10661 10654 10649 10650 10647 10640 10635 10633 10628 10623 10624 10627 10621 10623 10638 10640 10635 10635 10630 10627 10617 10602 10595 10591 10587 10588 10583 10578 10576 10571 10566 10559 10552 10547
10691 10693 10695 10695 10691 10688 10690 10691 10690 10690 10692 10694 10701 10713 10717 10714 10711 10705 10701 10698 10695 10695 10696 10699 10702 10700 10699 10700 10700 10696 10690 10689 10691 10689 10689 10689 10691 10692 10683 10674 10670 10663 10657 10654 10657 10662 10667 10675 10678 10672 10668 10666 10662 10659 10652 10646 10643 10641 10637 10631 10627 10624 10622 10615 10612 10616 10611 10607 10621 10629 10628 10627 10623 10619 10611 10595 10586 10583 10581 10579 10573 10570 10567 10562 10556 10548 10542 10537
10682 10685 10689 10689 10680 10677 10681 10680 10679 10682 10683 10687 10699 10709 10708 10706 10704 10695 10688 10688 10689 10688 10689 10691 10693 10691 10691 10692 10691 10688 10683 10682 10683 10681 10682 10683 10684 10685 10676 10666 10662 10656 10650 10646 10649 10652 10652 10661 10671 10668 10661 10659 10657 10650 10642 10638 10636 10632 10627 10623 10619 10615 10613 10607 10600 10602 10599 10593 10601 10613 10618 10621 10617 10608 10598 10586 10578 10575 10571 10567 10563 10562 10558 10552 10545 10538 10531 10526
10674 10677 10682 10681 10668 10665 10671 10670 10669 10672 10676 10685 10696 10698 10698 10698 10694 10686 10680 10680 10680 10681 10683 10684 10682 10681 10685 10684 10681 10678 10675 10674 10675 10674 10674 10676 10676 10674 10667 10659 10653 10647 10644 10640 10641 10643 10641 10647 10660 10664 10657 10653 10649 10641 10634 10631 10626 10622 10618 10615 10613 10608 10603 10600 10593 10590 10587 10581 10584 10590 10599 10614 10613 10596 10584 10576 10571 10565 10558 10554 10552 10551 10548 10540 10532 10527 10521 10515
10666 10668 10676 10673 10656 10653 10660 10658 10659 10666 10672 10681 10686 10687 10688 10688 10684 10679 10673 10670 10671 10672 10675 10676 10673 10673 10675 10674 10671 10669 10663 10664 10668 10666 10666 10667 10665 10662 10656 10650 10644 10638 10635 10634 10633 10633 10631 10634 10647 10655 10652 10648 10643 10635 10629 10625 10617 10611 10609 10607 10604 10598 10592 10590 10587 10585 10578 10572 10575 10568 10574 10602 10603 10580 10573 10570 10562 10554 10544 10542 10543 10539 10535 10528 10521 10516 10510 10504
10654 10658 10670 10664 10645 10641 10646 10647 10654 10662 10666 10674 10678 10677 10677 10675 10674 10672 10666 10661 10661 10663 10664 10666 10666 10665 10665 10663 10661 10657 10652 10655 10659 10656 10657 10658 10653 10648 10644 10640 10636 10630 10625 10624 10625 10624 10621 10625 10636 10643 10642 10640 10636 10629 10624 10618 10609 10602 10601 10600 10595 10587 10582 10577 10577 10581 10571 10566 10569 10553 10556 10590 10586 10562 10563 10562 10549 10541 10533 10532 10535 10529 10522 10516 10510 10505 10498 10492
10643 10650 10659 10651 10636 10633 10632 10638 10651 10657 10660 10667 10667 10663 10662 10662 10664 10664 10659 10654 10652 10653 10653 10653 10656 10655 10655 10654 10650 10646 10643 10645 10648 10647 10646 10646 10641 10636 10633 10630 10627 10623 10618 10616 10616 10614 10611 10616 10625 10631 10632 10629 10626 10623 10616 10608 10600 10596 10597 10595 10587 10580 10575 10568 10566 10569 10563 10562 10558 10537 10548 10579 10569 10549 10555 10551 10536 10529 10524 10525 10525 10517 10510 10504 10498 10493 10486 10480
10634 10639 10642 10637 10631 10626 10623 10633 10647 10649 10652 10656 10652 10648 10649 10651 10654 10655 10653 10647 10643 10642 10640 10642 10647 10646 10645 10643 10638 10636 10634 10633 10638 10638 10632 10632 10633 10629 10623 10619 10615 10612 10610 10609 10608 10605 10604 10607 10612 10617 10621 10619 10615 10613 10606 10596 10590 10591 10594 10588 10579 10574 10567 10561 10560 10556 10553 10556 10541 10524 10544 10564 10549 10541 10546 10535 10522 10517 10515 10517 10513 10503 10498 10492 10486 10482 10475 10467
10620 10623 10627 10628 10624 10619 10619 10630 10637 10637 10640 10641 10638 10639 10639 10639 10644 10647 10643 10637 10633 10631 10631 10633 10636 10635 10633 10630 10627 10628 10625 10622 10625 10625 10620 10621 10626 10623 10612 10607 10606 10603 10601 10600 10598 10597 10597 10599 10600 10603 10606 10608 10609 10605 10595 10585 10581 10584 10587 10580 10572 10568 10558 10553 10553 10545 10544 10546 10528 10521 10540 10543 10531 10533 10532 10516 10506 10506 10506 10504 10498 10490 10485 10480 10474 10470 10462 10455
10604 10607 10614 10618 10615 10611 10616 10624 10623 10621 10626 10627 10626 10630 10629 10629 10635 10636 10631 10628 10626 10624 10624 10625 10625 10623 10621 10620 10619 10618 10615 10610 10609 10612 10615 10616 10615 10611 10602 10597 10597 10596 10594 10592 10589 10588 10589 10591 10593 10590 10587 10591 10598 10596 10583 10575 10574 10577 10579 10574 10567 10561 10551 10545 10542 10534 10530 10527 10522 10526 10528 10521 10521 10521 10510 10498 10492 10493 10495 10488 10481 10477 10471 10466 10463 10456 10449 10442
10589 10594 10604 10608 10604 10602 10608 10612 10607 10607 10614 10613 10611 10617 10621 10621 10626 10625 10621 10622 10622 10617 10613 10614 10614 10613 10613 10612 10608 10604 10603 10601 10598 10602 10609 10607 10600 10596 10592 10590 10589 10587 10586 10582 10579 10579 10579 10584 10588 10580 10572 10575 10582 10579 10569 10563 10564 10567 10569 10566 10559 10551 10544 10536 10526 10523 10516 10505 10514 10527 10510 10502 10518 10507 10482 10480 10481 10480 10480 10472 10465 10462 10456 10453 10449 10441 10435 10429
10578 10587 10598 10597 10589 10590 10597 10600 10597 10597 10599 10594 10593 10603 10611 10613 10617 10618 10616 10616 10613 10606 10602 10605 10607 10605 10604 10600 10592 10590 10595 10594 10591 10595 10597 10592 10585 10581 10581 10583 10582 10579 10576 10572 10570 10569 10567 10575 10581 10570 10561 10566 10569 10563 10554 10549 10552 10557 10559 10556 10548 10541 10535 10523 10512 10515 10506 10488 10503 10520 10497 10490 10510 10493 10462 10463 10470 10467 10464 10456 10451 10447 10443 10440 10434 10426 10422 10416
10571 10579 10585 10581 10574 10580 10590 10590 10585 10579 10577 10576 10581 10592 10601 10606 10610 10610 10608 10604 10600 10596 10593 10595 10599 10597 10591 10585 10578 10581 10590 10589 10585 10585 10581 10574 10570 10568 10571 10574 10572 10569 10567 10562 10562 10558 10554 10563 10571 10559 10549 10556 10559 10550 10541 10536 10539 10546 10551 10549 10538 10528 10519 10510 10506 10508 10496 10481 10492 10503 10489 10490 10497 10474 10451 10453 10456 10452 10447 10442 10439 10435 10431 10427 10420 10413 10409 10402
10564 10569 10570 10565 10561 10567 10575 10574 10567 10561 10565 10568 10570 10582 10595 10599 10600 10599 10595 10590 10588 10589 10582 10580 10590 10589 10577 10571 10568 10573 10586 10584 10574 10571 10566 10558 10557 10556 10559 10564 10563 10560 10557 10554 10552 10546 10541 10549 10557 10546 10538 10546 10549 10538 10528 10528 10527 10531 10545 10546 10527 10510 10503 10500 10500 10497 10485 10478 10484 10482 10480 10490 10486 10459 10446 10448 10443 10437 10434 10428 10426 10423 10419 10413 10406 10401 10395 10388
10553 10557 10554 10546 10544 10551 10557 10558 10555 10553 10558 10557 10559 10579 10590 10586 10587 10587 10579 10573 10575 10577 10572 10571 10581 10578 10562 10557 10559 10569 10583 10574 10555 10556 10555 10544 10543 10547 10549 10554 10555 10551 10548 10545 10541 10535 10530 10535 10541 10532 10524 10534 10538 10525 10519 10519 10512 10520 10543 10539 10510 10495 10497 10494 10488 10485 10477 10473 10474 10469 10468 10479 10473 10451 10444 10443 10433 10426 10422 10417 10413 10410 10405 10399 10393 10387 10381 10375
10533 10534 10535 10530 10532 10540 10541 10540 10542 10541 10544 10548 10558 10575 10575 10567 10573 10570 10556 10559 10568 10567 10563 10565 10570 10561 10545 10544 10555 10568 10574 10556 10537 10541 10541 10531 10534 10540 10540 10544 10545 10540 10537 10535 10532 10527 10521 10522 10526 10518 10510 10520 10526 10516 10511 10507 10502 10516 10535 10522 10496 10489 10491 10484 10477 10476 10469 10461 10462 10462 10459 10461 10456 10445 10441 10437 10426 10418 10413 10406 10402 10398 10392 10386 10381 10374 10368 10362
10513 10511 10519 10518 10514 10519 10523 10525 10526 10526 10537 10550 10555 10557 10554 10554 10560 10550 10538 10552 10563 10557 10552 10554 10552 10541 10532 10540 10556 10561 10551 10534 10524 10528 10528 10523 10528 10532 10531 10533 10532 10529 10528 10526 10520 10518 10514 10510 10511 10505 10497 10502 10510 10506 10500 10495 10498 10513 10519 10503 10489 10485 10479 10474 10472 10470 10462 10453 10451 10452 10450 10446 10441 10434 10432 10427 10418 10412 10406 10399 10392 10386 10379 10374 10368 10361 10354 10348